#timestamp,LO_Frequency,Hit,Temp,Hum 
1479675615.8,286046995.8,N,0.0,0.0
1479675635.7,286046995.6,N,0.0,0.0
1479675655.5,286046995.5,N,0.0,0.0
1479675675.3,286046996.4,N,0.0,0.0
1479675695.2,286046995.8,N,0.0,0.0
1479675715.0,286046996.0,N,0.0,0.0
1479675715.9,286046996.0,N,0.0,0.0
1479675735.8,286046993.3,N,0.0,0.0
1479675755.6,286046993.5,N,0.0,0.0
1479675775.4,286046994.2,N,0.0,0.0
1479675795.3,286046993.5,N,0.0,0.0
1479675815.1,286046995.3,N,0.0,0.0
1479675835.8,286046994.9,N,0.0,0.0
1479675855.7,286046996.8,N,0.0,0.0
1479675875.5,286046996.5,N,0.0,0.0
1479675895.4,286046996.9,N,0.0,0.0
1479675915.2,286046997.2,N,0.0,0.0
1479675935.0,286046997.0,N,0.0,0.0
1479675935.9,286046997.0,N,0.0,0.0
1479675955.8,286046997.3,N,0.0,0.0
1479675975.6,286046996.8,N,0.0,0.0
1479675995.5,286046996.5,N,0.0,0.0
1479676015.3,286046998.9,N,0.0,0.0
1479676035.1,286046998.2,N,0.0,0.0
1479676055.9,286046999.9,N,0.0,0.0
1479676075.7,286047000.9,N,0.0,0.0
1479676095.5,286047000.0,N,0.0,0.0
1479676115.4,286047000.4,N,0.0,0.0
1479676135.2,286047000.0,N,0.0,0.0
1479676155.1,286046996.7,N,0.0,0.0
1479676156.0,286046996.7,N,0.0,0.0
1479676175.8,286046996.9,N,0.0,0.0
1479676195.6,286046999.3,N,0.0,0.0
1479676215.5,286046999.1,N,0.0,0.0
1479676235.3,286046999.4,N,0.0,0.0
1479676255.1,286046997.1,N,0.0,0.0
1479676275.9,286046994.9,N,0.0,0.0
1479676295.7,286046999.6,N,0.0,0.0
1479676315.6,286046996.5,N,0.0,0.0
1479676335.4,286046995.6,N,0.0,0.0
1479676355.2,286046995.0,N,0.0,0.0
1479676375.1,286046996.7,N,0.0,0.0
1479676376.0,286046996.7,N,0.0,0.0
1479676395.8,286046997.0,N,0.0,0.0
1479676415.7,286046997.3,N,0.0,0.0
1479676435.5,286046997.2,N,0.0,0.0
1479676455.3,286046997.2,N,0.0,0.0
1479676475.2,286046995.3,N,0.0,0.0
1479676495.9,286046997.9,N,0.0,0.0
1479676515.7,286046997.1,N,0.0,0.0
1479676535.6,286046999.1,N,0.0,0.0
1479676555.4,286046999.1,N,0.0,0.0
1479676575.2,286046996.9,N,0.0,0.0
1479676595.1,286046995.1,N,0.0,0.0
1479676596.0,286046995.1,N,0.0,0.0
1479676615.8,286046998.0,N,0.0,0.0
1479676635.7,286046996.2,N,0.0,0.0
1479676655.5,286046995.3,N,0.0,0.0
1479676675.3,286046995.1,N,0.0,0.0
1479676695.2,286046996.8,N,0.0,0.0
1479676715.0,286046999.3,N,0.0,0.0
1479676715.9,286046999.3,N,0.0,0.0
1479676735.8,286046998.1,N,0.0,0.0
1479676755.6,286046998.2,N,0.0,0.0
1479676775.4,286047002.4,N,0.0,0.0
1479676795.3,286047000.2,N,0.0,0.0
1479676815.1,286047000.7,N,0.0,0.0
1479676835.8,286046998.1,N,0.0,0.0
1479676855.7,286047000.6,N,0.0,0.0
1479676875.5,286047000.4,N,0.0,0.0
1479676895.4,286047002.7,N,0.0,0.0
1479676915.2,286047002.6,N,0.0,0.0
1479676935.0,286047001.8,N,0.0,0.0
1479676935.9,286047001.8,N,0.0,0.0
1479676955.8,286047002.3,N,0.0,0.0
1479676975.6,286047002.1,N,0.0,0.0
1479676995.5,286047001.9,N,0.0,0.0
1479677015.3,286047003.6,N,0.0,0.0
1479677035.1,286047000.2,N,0.0,0.0
1479677055.9,286046999.7,N,0.0,0.0
1479677075.7,286047000.0,N,0.0,0.0
1479677095.5,286047001.1,N,0.0,0.0
1479677115.4,286046998.3,N,0.0,0.0
1479677135.2,286046998.1,N,0.0,0.0
1479677155.1,286047000.8,N,0.0,0.0
1479677156.0,286047000.8,N,0.0,0.0
1479677175.8,286046998.9,N,0.0,0.0
1479677195.6,286047000.8,N,0.0,0.0
1479677215.5,286046998.6,N,0.0,0.0
1479677235.3,286046998.5,N,0.0,0.0
1479677255.1,286046996.7,N,0.0,0.0
1479677275.9,286046995.4,N,0.0,0.0
1479677295.7,286046996.1,N,0.0,0.0
1479677315.6,286046996.1,N,0.0,0.0
1479677335.4,286046994.9,N,0.0,0.0
1479677355.2,286046995.3,N,0.0,0.0
1479677375.1,286046996.8,N,0.0,0.0
1479677376.0,286046996.8,N,0.0,0.0
1479677395.8,286046999.6,N,0.0,0.0
1479677415.6,286046996.6,N,0.0,0.0
1479677435.5,286046995.4,N,0.0,0.0
1479677455.3,286046996.2,N,0.0,0.0
1479677475.2,286046993.4,N,0.0,0.0
1479677495.9,286046995.8,N,0.0,0.0
1479677515.7,286046996.1,N,0.0,0.0
1479677535.6,286046995.0,N,0.0,0.0
1479677555.4,286046997.0,N,0.0,0.0
1479677575.2,286046998.8,N,0.0,0.0
1479677595.1,286046996.7,N,0.0,0.0
1479677596.0,286046996.7,N,0.0,0.0
1479677615.8,286046997.0,N,0.0,0.0
1479677635.7,286046997.2,N,0.0,0.0
1479677655.5,286046997.3,N,0.0,0.0
1479677675.3,286046996.9,N,0.0,0.0
1479677695.2,286046998.8,N,0.0,0.0
1479677715.0,286047001.1,N,0.0,0.0
1479677715.9,286047001.1,N,0.0,0.0
1479677735.8,286047002.8,N,0.0,0.0
1479677755.6,286047000.7,N,0.0,0.0
1479677775.4,286046998.5,N,0.0,0.0
1479677795.3,286046998.4,N,0.0,0.0
1479677815.1,286046998.7,N,0.0,0.0
1479677816.0,286046998.7,N,0.0,0.0
1479677835.8,286046996.6,N,0.0,0.0
1479677855.7,286046999.0,N,0.0,0.0
1479677875.5,286046998.7,N,0.0,0.0
1479677895.4,286046998.6,N,0.0,0.0
1479677915.2,286046997.0,N,0.0,0.0
1479677935.0,286046997.1,N,0.0,0.0
1479677935.9,286046997.1,N,0.0,0.0
1479677955.8,286046997.2,N,0.0,0.0
1479677975.6,286046996.5,N,0.0,0.0
1479677995.4,286046996.5,N,0.0,0.0
1479678015.3,286046999.2,N,0.0,0.0
1479678035.1,286046996.6,N,0.0,0.0
1479678055.9,286046999.4,N,0.0,0.0
1479678075.7,286046999.6,N,0.0,0.0
1479678095.5,286046997.0,N,0.0,0.0
1479678115.4,286046996.5,N,0.0,0.0
1479678135.2,286046999.1,N,0.0,0.0
1479678155.0,286046999.5,N,0.0,0.0
1479678155.9,286046999.5,N,0.0,0.0
1479678175.8,286046999.3,N,0.0,0.0
1479678195.6,286046998.9,N,0.0,0.0
1479678215.5,286046998.6,N,0.0,0.0
1479678235.3,286046998.4,N,0.0,0.0
1479678255.1,286046998.6,N,0.0,0.0
1479678275.9,286047001.1,N,0.0,0.0
1479678295.7,286047000.5,N,0.0,0.0
1479678315.5,286047000.3,N,0.0,0.0
1479678335.4,286047000.5,N,0.0,0.0
1479678355.2,286047000.5,N,0.0,0.0
1479678375.1,286047002.4,N,0.0,0.0
1479678376.0,286047002.4,N,0.0,0.0
1479678395.8,286047002.6,N,0.0,0.0
1479678415.6,286047002.3,N,0.0,0.0
1479678435.5,286047002.4,N,0.0,0.0
1479678455.3,286047002.2,N,0.0,0.0
1479678475.2,286047000.1,N,0.0,0.0
1479678495.9,286046999.8,N,0.0,0.0
1479678515.7,286047002.3,N,0.0,0.0
1479678535.6,286047002.2,N,0.0,0.0
1479678555.4,286046999.7,N,0.0,0.0
1479678575.2,286047002.7,N,0.0,0.0
1479678595.1,286046999.8,N,0.0,0.0
1479678596.0,286046999.8,N,0.0,0.0
1479678615.8,286047001.8,N,0.0,0.0
1479678635.7,286047002.1,N,0.0,0.0
1479678655.5,286047002.0,N,0.0,0.0
1479678675.3,286047001.9,N,0.0,0.0
1479678695.2,286047003.5,N,0.0,0.0
1479678715.0,286047004.0,N,0.0,0.0
1479678715.9,286047004.0,N,0.0,0.0
1479678735.8,286047005.6,N,0.0,0.0
1479678755.6,286047005.5,N,0.0,0.0
1479678775.4,286047006.6,N,0.0,0.0
1479678795.3,286047007.2,N,0.0,0.0
1479678815.1,286047004.7,N,0.0,0.0
1479678835.8,286047004.6,N,0.0,0.0
1479678855.7,286047006.1,N,0.0,0.0
1479678875.5,286047006.4,N,0.0,0.0
1479678895.4,286047009.1,N,0.0,0.0
1479678915.2,286047008.0,N,0.0,0.0
1479678935.0,286047009.9,N,0.0,0.0
1479678935.9,286047009.9,N,0.0,0.0
1479678955.8,286047010.0,N,0.0,0.0
1479678975.6,286047010.0,N,0.0,0.0
1479678995.4,286047010.1,N,0.0,0.0
1479679015.3,286047013.7,N,0.0,0.0
1479679035.1,286047011.0,N,0.0,0.0
1479679055.9,286047013.8,N,0.0,0.0
1479679075.7,286047013.8,N,0.0,0.0
1479679095.5,286047015.5,N,0.0,0.0
1479679115.4,286047012.9,N,0.0,0.0
1479679135.2,286047013.2,N,0.0,0.0
1479679155.0,286047012.5,N,0.0,0.0
1479679156.0,286047012.5,N,0.0,0.0
1479679175.8,286047014.5,N,0.0,0.0
1479679195.6,286047016.5,N,0.0,0.0
